Regional Weather Roundup
Issued by NWS

Home | Current Version | Previous Version | Text Only | Print | Product List | Glossary On
Versions: 1 2 3 4 5 6 7 8 9 10 11 12 13 14 15 16 17 18 19 20 21 22 23 24 25 26 27 28 29 30 31 32 33 34 35 36 37 38 39 40 41 42 43 44 45 46 47 48 49 50
112
ASUS44 KLIX 250401
RWRLA
LOUISIANA WEATHER ROUNDUP
NATIONAL WEATHER SERVICE NEW ORLEANS LA
1000 PM CST SAT JAN 24 2015

NOTE: "FAIR" INDICATES FEW OR NO CLOUDS BELOW 12,000 FEET WITH NO
      SIGNIFICANT WEATHER AND/OR OBSTRUCTIONS TO VISIBILITY.
      SKY/WX - SKY CONDITION AND SIGNIFICANT WEATHER.
      TMP - AIR TEMPERATURE.    DP   - DEWPOINT TEMPERATURE.
      RH  - RELATIVE HUMIDITY.  PRES - PRESSURE.
      HX  - HEAT INDEX.         WCI  - WIND CHILL INDEX.

*  THESE STATIONS ARE NOT NWS OR FAA STATIONS AND ARE NOT UNDER
   NWS QUALITY CONTROL.

LAZ040-048-061>063-065-066-069-250500-
SOUTHEAST LOUISIANA

CITY           SKY/WX    TMP DP  RH WIND       PRES   REMARKS
N.O. AUDUBON   NOT AVBL
N.O. INTL ARPT PTCLDY    46  38  73 SW9       30.10R
N.O. LAKEFRONT CLEAR     50  40  68 SW13      30.10R
N.O. DOWNTOWN* FAIR      48  36  61 SW6       30.11R
SLIDELL        CLEAR     38  35  89 CALM      30.07S
BATON ROUGE    CLEAR     46  37  71 SW9       30.08S
BOOTHVILLE     CLEAR     47  43  86 W7        30.11S
BELLE CHASSE   PTCLDY    48  39  71 SW7       30.10S
BOGALUSA*        N/A     37  34  89 CALM      30.07S
GALLIANO*      NOT AVBL
NEW ROADS*     NOT AVBL
GONZALES*      NOT AVBL
HAMMOND*       NOT AVBL
HOUMA*         PTCLDY    45  41  85 SW5       30.11S
PORT FOURCHON* CLEAR     52  41  66 W10       30.15S

$$

LAZ041-044-053-054-250500-
SOUTHWEST LOUISIANA

CITY           SKY/WX    TMP DP  RH WIND       PRES   REMARKS
LAKE CHARLES   CLEAR     46  43  89 SW6       30.08F
LAFAYETTE      CLEAR     45  41  86 SW7       30.09S
PATTERSON      CLEAR     43  39  87 SW3       30.12S
SALT POINT       N/A     50  47  89 W6        30.10F
NEW IBERIA     PTCLDY    44  40  85 SW6       30.11S
CHENAULT AIRPK CLEAR     47  44  88 SW6       30.09S

$$

LAZ027-028-250500-
CENTRAL LOUISIANA

CITY           SKY/WX    TMP DP  RH WIND       PRES   REMARKS
FORT POLK      CLEAR     46  39  77 S2        30.05S
ALEXANDRIA INT PTCLDY    43  38  82 CALM      30.04R
ALEXANDRIA     PTCLDY    38  35  89 CALM      30.05R

$$

LAZ001-002-250500-
NORTHWEST LOUISIANA

CITY           SKY/WX    TMP DP  RH WIND       PRES   REMARKS
SHREVEPORT     CLEAR     43  34  70 W7        30.01F
BARKSDALE AFB  CLEAR     40  32  75 SW6       30.02F
DTN SHREVEPORT CLEAR     45  34  65 SW7       30.02S

$$

LAZ014-016-250500-
NORTHEAST LOUISIANA

CITY           SKY/WX    TMP DP  RH WIND       PRES   REMARKS
MONROE         CLEAR     42  36  79 SW3       30.02F
TALLULAH       CLEAR     44  35  70 SW3       30.03S

$$




USA.gov is the U.S. government's official web portal to all federal, state and local government web resources and services.